Time,TemperatureF,DewpointF,PressureIn,WindDirection,WindDirectionDegrees,WindSpeedMPH,WindSpeedGustMPH,Humidity,HourlyPrecipIn,Conditions,Clouds,dailyrainin,SoftwareType,DateUTC
2013-03-29 00:12:00,41.0,35.0,29.98,NNW,345,0.0,7.0,78,0.00,,,0.00,weatherlink.com 1.10,2013-03-29 04:12:00,
2013-03-29 00:27:00,40.9,35.0,29.98,WNW,295,4.0,4.0,79,0.00,,,0.00,weatherlink.com 1.10,2013-03-29 04:27:00,
2013-03-29 00:42:00,40.8,35.0,29.98,West,262,1.0,5.0,80,0.00,,,0.00,weatherlink.com 1.10,2013-03-29 04:42:00,
2013-03-29 00:57:00,40.7,35.0,29.98,SW,236,2.0,4.0,80,0.00,,,0.00,weatherlink.com 1.10,2013-03-29 04:57:00,
2013-03-29 01:12:00,40.5,35.0,29.97,West,276,2.0,4.0,81,0.00,,,0.00,weatherlink.com 1.10,2013-03-29 05:12:00,
2013-03-29 01:27:00,40.4,36.0,29.97,SW,218,0.0,4.0,83,0.00,,,0.00,weatherlink.com 1.10,2013-03-29 05:27:00,
2013-03-29 01:42:00,40.3,36.0,29.98,WNW,301,2.0,4.0,83,0.00,,,0.00,weatherlink.com 1.10,2013-03-29 05:42:00,
2013-03-29 01:57:00,40.3,36.0,29.98,WSW,240,2.0,4.0,84,0.00,,,0.00,weatherlink.com 1.10,2013-03-29 05:57:00,
2013-03-29 02:12:00,40.3,36.0,29.98,WNW,291,0.0,3.0,84,0.00,,,0.00,weatherlink.com 1.10,2013-03-29 06:12:00,
2013-03-29 02:27:00,40.2,36.0,29.98,NW,318,1.0,3.0,85,0.00,,,0.00,weatherlink.com 1.10,2013-03-29 06:27:00,
2013-03-29 02:43:00,40.3,36.0,29.97,West,281,1.0,5.0,84,0.00,,,0.00,weatherlink.com 1.10,2013-03-29 06:43:00,
2013-03-29 02:57:00,40.5,36.0,29.97,West,277,1.0,5.0,83,0.00,,,0.00,weatherlink.com 1.10,2013-03-29 06:57:00,
2013-03-29 03:12:00,40.4,35.0,29.97,WNW,297,3.0,5.0,82,0.00,,,0.00,weatherlink.com 1.10,2013-03-29 07:12:00,
2013-03-29 03:27:00,40.6,35.0,29.97,WNW,297,2.0,7.0,81,0.00,,,0.00,weatherlink.com 1.10,2013-03-29 07:27:00,
2013-03-29 03:42:00,41.1,35.0,29.97,NW,305,3.0,5.0,80,0.00,,,0.00,weatherlink.com 1.10,2013-03-29 07:42:00,
2013-03-29 03:58:00,41.2,35.0,29.96,NNW,330,1.0,6.0,79,0.00,,,0.00,weatherlink.com 1.10,2013-03-29 07:58:00,
2013-03-29 04:13:00,41.0,35.0,29.96,WNW,285,2.0,5.0,79,0.00,,,0.00,weatherlink.com 1.10,2013-03-29 08:13:00,
2013-03-29 04:28:00,40.7,35.0,29.97,WNW,290,4.0,7.0,79,0.00,,,0.00,weatherlink.com 1.10,2013-03-29 08:28:00,
2013-03-29 04:43:00,40.1,34.0,29.97,NW,326,4.0,6.0,80,0.00,,,0.00,weatherlink.com 1.10,2013-03-29 08:43:00,
2013-03-29 04:58:00,40.5,34.0,29.97,NNW,327,5.0,7.0,79,0.00,,,0.00,weatherlink.com 1.10,2013-03-29 08:58:00,
2013-03-29 05:13:00,40.6,35.0,29.97,NW,312,5.0,7.0,79,0.00,,,0.00,weatherlink.com 1.10,2013-03-29 09:13:00,
2013-03-29 05:28:00,40.8,34.0,29.97,WNW,293,7.0,8.0,78,0.00,,,0.00,weatherlink.com 1.10,2013-03-29 09:28:00,
2013-03-29 05:43:00,40.8,34.0,29.97,WNW,293,5.0,10.0,78,0.00,,,0.00,weatherlink.com 1.10,2013-03-29 09:43:00,
2013-03-29 05:58:00,40.6,34.0,29.98,NW,319,6.0,8.0,78,0.00,,,0.00,weatherlink.com 1.10,2013-03-29 09:58:00,
2013-03-29 06:13:00,40.4,34.0,29.98,NW,308,5.0,9.0,79,0.00,,,0.00,weatherlink.com 1.10,2013-03-29 10:13:00,
2013-03-29 06:28:00,40.4,34.0,29.98,WNW,302,4.0,9.0,79,0.00,,,0.00,weatherlink.com 1.10,2013-03-29 10:28:00,
2013-03-29 06:43:00,40.4,34.0,29.98,NW,316,5.0,9.0,79,0.00,,,0.00,weatherlink.com 1.10,2013-03-29 10:43:00,
2013-03-29 06:58:00,40.9,35.0,29.98,WNW,297,5.0,8.0,78,0.00,,,0.00,weatherlink.com 1.10,2013-03-29 10:58:00,
2013-03-29 07:13:00,41.7,35.0,29.99,NW,309,5.0,10.0,77,0.00,,,0.00,weatherlink.com 1.10,2013-03-29 11:13:00,
2013-03-29 07:28:00,42.8,35.0,29.99,WNW,288,7.0,10.0,75,0.00,,,0.00,weatherlink.com 1.10,2013-03-29 11:28:00,
2013-03-29 07:43:00,43.6,36.0,30.00,NW,314,5.0,13.0,74,0.00,,,0.00,weatherlink.com 1.10,2013-03-29 11:43:00,
2013-03-29 07:58:00,44.5,36.0,30.00,WNW,297,11.0,12.0,72,0.00,,,0.00,weatherlink.com 1.10,2013-03-29 11:58:00,
2013-03-29 08:13:00,45.2,36.0,30.00,WNW,297,5.0,13.0,71,0.00,,,0.00,weatherlink.com 1.10,2013-03-29 12:13:00,
2013-03-29 08:28:00,45.9,36.0,30.00,NW,309,6.0,15.0,69,0.00,,,0.00,weatherlink.com 1.10,2013-03-29 12:28:00,
2013-03-29 08:43:00,46.4,37.0,30.00,NW,319,8.0,12.0,69,0.00,,,0.00,weatherlink.com 1.10,2013-03-29 12:43:00,
2013-03-29 08:58:00,46.3,36.0,30.00,NNW,329,8.0,16.0,68,0.00,,,0.00,weatherlink.com 1.10,2013-03-29 12:58:00,
2013-03-29 09:13:00,46.7,37.0,30.00,North,359,11.0,14.0,68,0.00,,,0.00,weatherlink.com 1.10,2013-03-29 13:13:00,
2013-03-29 09:28:00,47.1,37.0,30.00,NW,310,10.0,14.0,67,0.00,,,0.00,weatherlink.com 1.10,2013-03-29 13:28:00,
2013-03-29 09:43:00,47.2,36.0,30.00,NNW,339,11.0,14.0,66,0.00,,,0.00,weatherlink.com 1.10,2013-03-29 13:43:00,
2013-03-29 09:58:00,47.4,37.0,30.00,NNW,339,8.0,14.0,67,0.00,,,0.00,weatherlink.com 1.10,2013-03-29 13:58:00,
2013-03-29 10:13:00,47.4,36.0,30.00,NNW,333,11.0,14.0,66,0.00,,,0.00,weatherlink.com 1.10,2013-03-29 14:13:00,
2013-03-29 10:28:00,47.6,37.0,30.00,NNW,342,10.0,14.0,66,0.00,,,0.00,weatherlink.com 1.10,2013-03-29 14:28:00,
2013-03-29 10:43:00,48.4,37.0,30.00,WNW,297,11.0,14.0,65,0.00,,,0.00,weatherlink.com 1.10,2013-03-29 14:43:00,
2013-03-29 10:58:00,49.0,37.0,30.00,NNW,347,8.0,14.0,63,0.00,,,0.00,weatherlink.com 1.10,2013-03-29 14:58:00,
2013-03-29 11:13:00,49.5,37.0,30.00,NW,321,9.0,11.0,63,0.00,,,0.00,weatherlink.com 1.10,2013-03-29 15:13:00,
2013-03-29 11:28:00,49.8,37.0,30.00,North,350,7.0,11.0,61,0.00,,,0.00,weatherlink.com 1.10,2013-03-29 15:28:00,
2013-03-29 11:43:00,49.8,37.0,29.99,NNW,348,10.0,12.0,62,0.00,,,0.00,weatherlink.com 1.10,2013-03-29 15:43:00,
2013-03-29 11:58:00,51.0,38.0,29.99,NNW,347,8.0,13.0,61,0.00,,,0.00,weatherlink.com 1.10,2013-03-29 15:58:00,
2013-03-29 12:13:00,51.6,37.0,29.99,North,358,7.0,12.0,58,0.00,,,0.00,weatherlink.com 1.10,2013-03-29 16:13:00,
2013-03-29 12:28:00,51.4,37.0,29.98,NNW,345,10.0,13.0,59,0.00,,,0.00,weatherlink.com 1.10,2013-03-29 16:28:00,
2013-03-29 12:43:00,52.2,37.0,29.98,NNE,20,8.0,15.0,56,0.00,,,0.00,weatherlink.com 1.10,2013-03-29 16:43:00,
2013-03-29 12:58:00,53.5,37.0,29.97,NNW,335,4.0,12.0,54,0.00,,,0.00,weatherlink.com 1.10,2013-03-29 16:58:00,
2013-03-29 13:13:00,53.6,38.0,29.97,West,266,5.0,11.0,56,0.00,,,0.00,weatherlink.com 1.10,2013-03-29 17:13:00,
2013-03-29 13:29:00,53.7,39.0,29.96,ENE,70,1.0,10.0,58,0.00,,,0.00,weatherlink.com 1.10,2013-03-29 17:29:00,
2013-03-29 13:44:00,54.1,39.0,29.96,WSW,249,5.0,11.0,56,0.00,,,0.00,weatherlink.com 1.10,2013-03-29 17:44:00,
2013-03-29 13:59:00,53.4,38.0,29.96,SSE,167,3.0,12.0,57,0.00,,,0.00,weatherlink.com 1.10,2013-03-29 17:59:00,
2013-03-29 14:14:00,53.1,39.0,29.96,West,263,9.0,11.0,59,0.00,,,0.00,weatherlink.com 1.10,2013-03-29 18:14:00,
2013-03-29 14:29:00,51.8,39.0,29.96,NNE,23,1.0,14.0,62,0.00,,,0.00,weatherlink.com 1.10,2013-03-29 18:29:00,
2013-03-29 14:44:00,52.7,38.0,29.95,West,278,2.0,14.0,58,0.00,,,0.00,weatherlink.com 1.10,2013-03-29 18:44:00,
2013-03-29 15:14:00,53.0,37.0,29.95,WSW,249,5.0,13.0,54,0.00,,,0.00,weatherlink.com 1.10,2013-03-29 19:14:00,
2013-03-29 15:29:00,53.3,36.0,29.95,SSW,208,10.0,14.0,52,0.00,,,0.00,weatherlink.com 1.10,2013-03-29 19:29:00,
2013-03-29 15:45:00,51.9,36.0,29.96,SW,221,3.0,15.0,54,0.00,,,0.00,weatherlink.com 1.10,2013-03-29 19:45:00,
2013-03-29 15:59:00,52.1,36.0,29.95,SW,214,5.0,15.0,54,0.00,,,0.00,weatherlink.com 1.10,2013-03-29 19:59:00,
2013-03-29 16:14:00,52.2,35.0,29.96,WSW,238,3.0,14.0,53,0.00,,,0.00,weatherlink.com 1.10,2013-03-29 20:14:00,
2013-03-29 16:29:00,52.4,36.0,29.96,WSW,246,6.0,9.0,53,0.00,,,0.00,weatherlink.com 1.10,2013-03-29 20:29:00,
2013-03-29 16:44:00,52.9,36.0,29.96,WSW,242,4.0,7.0,53,0.00,,,0.00,weatherlink.com 1.10,2013-03-29 20:44:00,
2013-03-29 16:59:00,53.2,35.0,29.95,WSW,247,8.0,14.0,51,0.00,,,0.00,weatherlink.com 1.10,2013-03-29 20:59:00,
2013-03-29 17:14:00,53.2,36.0,29.96,SW,229,3.0,10.0,52,0.00,,,0.00,weatherlink.com 1.10,2013-03-29 21:14:00,
2013-03-29 17:29:00,52.4,36.0,29.96,SW,226,6.0,9.0,55,0.00,,,0.00,weatherlink.com 1.10,2013-03-29 21:29:00,
2013-03-29 17:44:00,51.4,36.0,29.96,SSE,152,2.0,12.0,57,0.00,,,0.00,weatherlink.com 1.10,2013-03-29 21:44:00,
2013-03-29 17:59:00,49.2,37.0,29.96,South,188,6.0,8.0,63,0.00,,,0.00,weatherlink.com 1.10,2013-03-29 21:59:00,
2013-03-29 18:14:00,46.9,37.0,29.97,WSW,238,3.0,11.0,69,0.00,,,0.00,weatherlink.com 1.10,2013-03-29 22:14:00,
2013-03-29 18:29:00,45.4,38.0,29.97,West,262,1.0,8.0,74,0.00,,,0.00,weatherlink.com 1.10,2013-03-29 22:29:00,
2013-03-29 18:44:00,44.6,37.0,29.97,WSW,245,5.0,8.0,76,0.00,,,0.00,weatherlink.com 1.10,2013-03-29 22:44:00,
2013-03-29 18:59:00,44.3,37.0,29.96,East,87,1.0,11.0,75,0.00,,,0.00,weatherlink.com 1.10,2013-03-29 22:59:00,
2013-03-29 19:14:00,43.9,37.0,29.96,SSW,192,3.0,8.0,77,0.00,,,0.00,weatherlink.com 1.10,2013-03-29 23:14:00,
2013-03-29 19:29:00,43.6,37.0,29.96,NNE,12,5.0,6.0,78,0.00,,,0.00,weatherlink.com 1.10,2013-03-29 23:29:00,
2013-03-29 19:44:00,43.5,37.0,29.97,West,267,1.0,8.0,79,0.00,,,0.00,weatherlink.com 1.10,2013-03-29 23:44:00,
2013-03-29 19:59:00,43.5,37.0,29.97,WSW,245,0.0,7.0,79,0.00,,,0.00,weatherlink.com 1.10,2013-03-29 23:59:00,
2013-03-29 20:14:00,43.6,38.0,29.97,SSW,210,0.0,7.0,79,0.00,,,0.00,weatherlink.com 1.10,2013-03-30 00:14:00,
2013-03-29 20:29:00,43.6,38.0,29.97,WNW,284,4.0,10.0,80,0.00,,,0.00,weatherlink.com 1.10,2013-03-30 00:29:00,
2013-03-29 20:44:00,43.6,38.0,29.97,WSW,247,5.0,5.0,80,0.00,,,0.00,weatherlink.com 1.10,2013-03-30 00:44:00,
2013-03-29 20:59:00,43.5,38.0,29.97,WSW,238,3.0,5.0,81,0.00,,,0.00,weatherlink.com 1.10,2013-03-30 00:59:00,
2013-03-29 21:14:00,43.5,38.0,29.98,West,263,0.0,4.0,81,0.00,,,0.00,weatherlink.com 1.10,2013-03-30 01:14:00,
2013-03-29 21:29:00,43.4,38.0,29.98,WSW,243,2.0,4.0,81,0.00,,,0.00,weatherlink.com 1.10,2013-03-30 01:29:00,
2013-03-29 21:44:00,43.4,38.0,29.98,West,276,1.0,3.0,80,0.00,,,0.00,weatherlink.com 1.10,2013-03-30 01:44:00,
2013-03-29 21:59:00,43.3,38.0,29.98,SW,224,0.0,2.0,80,0.00,,,0.00,weatherlink.com 1.10,2013-03-30 01:59:00,
2013-03-29 22:14:00,42.8,37.0,29.98,West,266,0.0,2.0,81,0.00,,,0.00,weatherlink.com 1.10,2013-03-30 02:14:00,
2013-03-29 22:29:00,42.5,37.0,29.98,SSW,209,1.0,2.0,81,0.00,,,0.00,weatherlink.com 1.10,2013-03-30 02:29:00,
2013-03-29 22:44:00,42.0,38.0,29.98,WSW,247,1.0,3.0,84,0.00,,,0.00,weatherlink.com 1.10,2013-03-30 02:44:00,
2013-03-29 22:59:00,41.8,37.0,29.98,WSW,243,2.0,4.0,83,0.00,,,0.00,weatherlink.com 1.10,2013-03-30 02:59:00,
2013-03-29 23:14:00,41.3,37.0,29.98,WSW,243,1.0,3.0,85,0.00,,,0.00,weatherlink.com 1.10,2013-03-30 03:14:00,
2013-03-29 23:29:00,41.5,37.0,29.98,NW,308,1.0,3.0,84,0.00,,,0.00,weatherlink.com 1.10,2013-03-30 03:29:00,
2013-03-29 23:44:00,41.5,37.0,29.98,WNW,293,2.0,5.0,83,0.00,,,0.00,weatherlink.com 1.10,2013-03-30 03:44:00,
2013-03-29 23:59:00,41.8,36.0,29.98,WNW,302,3.0,6.0,81,0.00,,,0.00,weatherlink.com 1.10,2013-03-30 03:59:00,